, AK

(GMT )
Valdez Airport

Weather History for PAVD - October, 2013

Change the Weather History Date:

Tuesday, October 29, 2013

  Actual Average Record
Temperature  
Mean Temperature 42 °F -  
Max Temperature 46 °F 37 °F 47 °F (1967)
Min Temperature 39 °F 28 °F 15 °F (1975)
Degree Days  
Heating Degree Days 22    
Moisture  
Dew Point 38 °F    
Average Humidity 85    
Maximum Humidity 93    
Minimum Humidity 66    
Precipitation  
Precipitation 0.07 in - - ()
Sea Level Pressure  
Sea Level Pressure 29.62 in    
Wind  
Wind Speed 2 mph (NE)    
Max Wind Speed 6 mph    
Max Gust Speed -    
Visibility 10 miles    
Events      
Averages and records for this station are not official NWS values.
T = Trace of Precipitation, MM = Missing Value Source: NWS Daily Summary

Daily Weather History Graph

Daily Weather History Graph

Search for Another Location

Airport or City:

Astronomy

Oct. 29, 2013 Rise Set
Actual Time 9:05 AM AKDT 5:50 PM AKDT
Civil Twilight 8:18 AM AKDT 6:37 PM AKDT
Nautical Twilight 7:27 AM AKDT 7:28 PM AKDT
Astronomical Twilight 6:38 AM AKDT 8:17 PM AKDT
Moon 2:46 AM AKDT (10/29) 4:18 PM AKDT (10/29)
Length of Visible Light 10h 18m
Length of Day
8h 45m
Waning Crescent, 24% of the Moon is Illuminated
Oct 29
Waning Crescent
Nov 3
New
Nov 9
First Quarter
Nov 17
Full
Nov 25
Last Quarter

Hourly Weather History & Observations

Time (AKDT) Temp. Windchill Dew Point Humidity Pressure Visibility Wind Dir Wind Speed Gust Speed Precip Events Conditions
12:16 AM 46.4 °F 44.3 °F 35.6 °F 66% 29.53 in 10.0 mi NW 4.6 mph - N/A   Overcast
12:36 AM 42.8 °F 39.3 °F 39.2 °F 87% 29.55 in 10.0 mi WSW 5.8 mph - 0.01 in   Overcast
12:56 AM 42.8 °F - 39.2 °F 87% 29.56 in 8.0 mi Calm Calm - 0.04 in   Overcast
1:16 AM 42.8 °F 41.1 °F 39.2 °F 87% 29.57 in 10.0 mi NNE 3.5 mph - 0.01 in   Overcast
1:36 AM 44.6 °F 42.2 °F 39.2 °F 81% 29.57 in 10.0 mi NNE 4.6 mph - 0.02 in   Overcast
1:56 AM 42.8 °F 41.1 °F 39.2 °F 87% 29.57 in 10.0 mi SE 3.5 mph - 0.02 in   Overcast
2:16 AM 42.8 °F 39.3 °F 39.2 °F 87% 29.58 in 10.0 mi East 5.8 mph - N/A   Overcast
2:36 AM 42.8 °F - 39.2 °F 87% 29.59 in 10.0 mi Calm Calm - N/A   Overcast
2:56 AM 42.8 °F 41.1 °F 37.4 °F 81% 29.59 in 10.0 mi WNW 3.5 mph - N/A   Overcast
3:16 AM 44.6 °F 43.1 °F 37.4 °F 76% 29.59 in 10.0 mi NNE 3.5 mph - N/A   Overcast
3:36 AM 44.6 °F 42.2 °F 37.4 °F 76% 29.60 in 10.0 mi SE 4.6 mph - N/A   Overcast
3:56 AM 42.8 °F 41.1 °F 37.4 °F 81% 29.60 in 10.0 mi East 3.5 mph - N/A   Overcast
4:16 AM 44.6 °F 43.1 °F 37.4 °F 76% 29.61 in 10.0 mi East 3.5 mph - N/A   Overcast
4:36 AM 46.4 °F 45.2 °F 37.4 °F 71% 29.61 in 10.0 mi ENE 3.5 mph - N/A   Overcast
4:56 AM 44.6 °F - 35.6 °F 71% 29.60 in 10.0 mi Calm Calm - N/A   Overcast
5:16 AM 42.8 °F 41.1 °F 35.6 °F 76% 29.59 in 10.0 mi North 3.5 mph - N/A   Overcast
5:36 AM 44.6 °F - 33.8 °F 66% 29.60 in 10.0 mi Calm Calm - N/A   Overcast
5:56 AM 44.6 °F 42.2 °F 35.6 °F 71% 29.60 in 10.0 mi NE 4.6 mph - N/A   Overcast
6:16 AM 42.8 °F 39.3 °F 39.2 °F 87% 29.60 in 10.0 mi NW 5.8 mph - N/A   Mostly Cloudy
6:36 AM 42.8 °F 41.1 °F 37.4 °F 81% 29.61 in 10.0 mi SW 3.5 mph - N/A   Mostly Cloudy
6:56 AM 42.8 °F 41.1 °F 37.4 °F 81% 29.62 in 10.0 mi West 3.5 mph - N/A   Overcast
7:16 AM 42.8 °F - 37.4 °F 81% 29.62 in 10.0 mi Calm Calm - N/A   Overcast
7:36 AM 42.8 °F - 37.4 °F 81% 29.63 in 10.0 mi Calm Calm - N/A   Overcast
7:56 AM 42.8 °F - 39.2 °F 87% 29.63 in 10.0 mi Calm Calm - N/A   Overcast
8:16 AM 41.0 °F - 39.2 °F 93% 29.63 in 10.0 mi Calm Calm - N/A   Overcast
8:36 AM 41.0 °F - 37.4 °F 87% 29.64 in 10.0 mi Calm Calm - N/A   Overcast
8:56 AM 41.0 °F - 37.4 °F 87% 29.64 in 10.0 mi Calm Calm - N/A   Overcast
9:16 AM 41.0 °F - 37.4 °F 87% 29.65 in 10.0 mi Calm Calm - N/A   Overcast
9:36 AM 41.0 °F - 39.2 °F 93% 29.65 in 10.0 mi Calm Calm - N/A   Overcast
9:56 AM 41.0 °F - 37.4 °F 87% 29.66 in 10.0 mi Calm Calm - 0.01 in   Mostly Cloudy
10:16 AM 41.0 °F - 37.4 °F 87% 29.66 in 10.0 mi Calm Calm - N/A   Mostly Cloudy
10:36 AM 41.0 °F 38.0 °F 39.2 °F 93% 29.66 in 10.0 mi SSW 4.6 mph - N/A   Mostly Cloudy
11:16 AM 42.8 °F - 39.2 °F 87% 29.67 in 10.0 mi Calm Calm - N/A   Mostly Cloudy
11:36 AM 42.8 °F - 39.2 °F 87% 29.67 in 10.0 mi Calm Calm - N/A   Mostly Cloudy
11:56 AM 42.8 °F - 39.2 °F 87% 29.68 in 10.0 mi Calm Calm - N/A   Mostly Cloudy
12:16 PM 42.8 °F - 37.4 °F 81% 29.68 in 10.0 mi Calm Calm - N/A   Mostly Cloudy
12:36 PM 42.8 °F - 39.2 °F 87% 29.69 in 10.0 mi Calm Calm - N/A   Mostly Cloudy
12:56 PM 42.8 °F 40.1 °F 39.2 °F 87% 29.69 in 10.0 mi SSW 4.6 mph - N/A   Mostly Cloudy
1:16 PM 42.8 °F - 39.2 °F 87% 29.68 in 10.0 mi Calm Calm - N/A   Mostly Cloudy
1:36 PM 42.8 °F - 39.2 °F 87% 29.68 in 10.0 mi Calm Calm - N/A   Mostly Cloudy
1:56 PM 42.8 °F - 39.2 °F 87% 29.68 in 10.0 mi Calm Calm - N/A   Mostly Cloudy
2:16 PM 44.6 °F - 39.2 °F 81% 29.68 in 10.0 mi Calm Calm - N/A   Mostly Cloudy
2:36 PM 44.6 °F - 39.2 °F 81% 29.67 in 10.0 mi Calm Calm - N/A   Mostly Cloudy
2:56 PM 44.6 °F - 39.2 °F 81% 29.67 in 10.0 mi Calm Calm - N/A   Mostly Cloudy
3:16 PM 44.6 °F - 41.0 °F 87% 29.67 in 10.0 mi Calm Calm - N/A   Mostly Cloudy
3:36 PM 44.6 °F 42.2 °F 39.2 °F 81% 29.66 in 10.0 mi East 4.6 mph - N/A   Mostly Cloudy
3:56 PM 44.6 °F - 39.2 °F 81% 29.66 in 10.0 mi Calm Calm - N/A   Mostly Cloudy
4:16 PM 44.6 °F - 39.2 °F 81% 29.65 in 10.0 mi Calm Calm - N/A   Mostly Cloudy
4:36 PM 44.6 °F - 39.2 °F 81% 29.65 in 10.0 mi Calm Calm - N/A   Mostly Cloudy
4:56 PM 42.8 °F - 39.2 °F 87% 29.64 in 10.0 mi Calm Calm - N/A   Overcast
5:16 PM 42.8 °F - 39.2 °F 87% 29.63 in 10.0 mi Calm Calm - N/A   Overcast
5:36 PM 42.8 °F - 39.2 °F 87% 29.63 in 10.0 mi Calm Calm - N/A   Overcast
5:56 PM 42.8 °F - 39.2 °F 87% 29.64 in 10.0 mi Calm Calm - N/A   Overcast
6:16 PM 42.8 °F - 39.2 °F 87% 29.63 in 10.0 mi Calm Calm - N/A   Overcast
6:36 PM 42.8 °F - 39.2 °F 87% 29.63 in 10.0 mi Calm Calm - N/A   Overcast
6:56 PM 42.8 °F 41.1 °F 37.4 °F 81% 29.63 in 10.0 mi East 3.5 mph - N/A   Overcast
7:16 PM 41.0 °F - 39.2 °F 93% 29.62 in 10.0 mi Calm Calm - N/A   Overcast
7:36 PM 41.0 °F - 39.2 °F 93% 29.61 in 10.0 mi Calm Calm - N/A   Overcast
7:56 PM 41.0 °F - 37.4 °F 87% 29.61 in 10.0 mi Calm Calm - N/A   Overcast
8:16 PM 39.2 °F - 37.4 °F 93% 29.60 in 10.0 mi Calm Calm - N/A   Overcast
8:36 PM 39.2 °F - 37.4 °F 93% 29.60 in 10.0 mi Calm Calm - N/A   Overcast
8:56 PM 39.2 °F - 37.4 °F 93% 29.59 in 10.0 mi Calm Calm - N/A   Overcast
9:16 PM 39.2 °F - 37.4 °F 93% 29.59 in 10.0 mi Calm Calm - N/A   Overcast
9:36 PM 39.2 °F - 37.4 °F 93% 29.58 in 10.0 mi Calm Calm - N/A   Overcast
9:56 PM 39.2 °F - 37.4 °F 93% 29.58 in 10.0 mi Calm Calm - N/A   Overcast
10:16 PM 39.2 °F - 37.4 °F 93% 29.57 in 10.0 mi Calm Calm - N/A   Overcast
10:36 PM 39.2 °F - 35.6 °F 87% 29.57 in 10.0 mi Calm Calm - N/A   Overcast
10:56 PM 39.2 °F - 37.4 °F 93% 29.56 in 10.0 mi Calm Calm - N/A   Overcast
11:16 PM 39.2 °F - 35.6 °F 87% 29.56 in 10.0 mi Calm Calm - N/A   Overcast
11:36 PM 39.2 °F - 37.4 °F 93% 29.54 in 10.0 mi Calm Calm - N/A   Overcast
11:56 PM 39.2 °F - 37.4 °F 93% 29.53 in 10.0 mi Calm Calm - N/A   Overcast